Location: St. Louis
(38.6270°N, 90.1994°W)
Time: 08:53:37
(UTC-06:00)

SR - Pass Details

Date: 30 November 2021
Orbit: 582 x 872 km, 66.7° (Epoch: 21 January)

Event Time Altitude Azimuth Distance (km) Brightness Sun altitude
Rises 00:07:12 0° 208° (SSW) 3,052 - -72.6°
Reaches altitude 10° 00:09:36 10° 209° (SSW) 2,094 - -72.5°
Maximum altitude 00:14:19 85° 299° (WNW) 642 - -72.2°
Drops below altitude 10° 00:18:43 10° 27° (NNE) 1,962 - -71.9°
Sets 00:20:55 0° 28° (NNE) 2,845 - -71.8°
